Weather History for Dansville, NY

Change the Weather History Date:

Thursday, October 25, 2012

  Actual Average Record
Temperature  
Mean Temperature 70 °F -  
Max Temperature 82 °F 60 °F 84 °F (1963)
Min Temperature 57 °F 37 °F 22 °F (1969)
Cooling Degree Days 4    
Growing Degree Days 20 (Base 50)    
Moisture  
Dew Point 56 °F    
Average Humidity 73    
Maximum Humidity 100    
Minimum Humidity 39    
Precipitation  
Precipitation 0.00 in - - ()
Sea Level Pressure  
Sea Level Pressure 30.10 in    
Wind  
Wind Speed 7 mph (SE)    
Max Wind Speed 14 mph    
Max Gust Speed -    
Visibility 9 miles    
Events      
Averages and records for this station are not official NWS values.
T = Trace of Precipitation, MM = Missing Value Source: NWS Daily Summary

Daily Weather History Graph

Daily Weather History Graph

Search for Another Location

Airport:

Trip Planner

Search our weather history database for the weather conditions in past years. The results will help you decide how hot, cold, wet, or windy it might be!

Date:

Astronomy

Oct. 25, 2012 Rise Set
Actual Time 7:36 AM EDT 6:12 PM EDT
Civil Twilight 7:07 AM EDT 6:41 PM EDT
Nautical Twilight 6:34 AM EDT 7:14 PM EDT
Astronomical Twilight 6:01 AM EDT 7:47 PM EDT
Moon 4:01 PM EDT (10/25) 3:26 AM EDT (10/25)
Length of Visible Light 11h 33m
Length of Day
10h 36m
Waxing Gibbous, 84% of the Moon is Illuminated
Oct 25
Waxing Gibbous
Oct 29
Full
Nov 6
Last Quarter
Nov 13
New
Nov 20
First Quarter

Hourly Weather History & Observations

Time (EDT) Temp. Heat Index Dew Point Humidity Pressure Visibility Wind Dir Wind Speed Gust Speed Precip Events Conditions
12:09 AM 57.2 °F - 57.2 °F 100% 30.11 in 4.0 mi SE 4.6 mph - N/A   Overcast
12:54 AM 57.9 °F - 57.9 °F 100% 30.14 in 6.0 mi ESE 4.6 mph - N/A   Overcast
1:54 AM 60.1 °F - 59.0 °F 96% 30.13 in 8.0 mi SE 4.6 mph - N/A   Overcast
2:54 AM 60.1 °F - 57.9 °F 93% 30.13 in 9.0 mi SE 4.6 mph - N/A   Mostly Cloudy
3:54 AM 60.1 °F - 57.9 °F 93% 30.12 in 9.0 mi SE 6.9 mph - N/A   Overcast
4:54 AM 59.0 °F - 57.9 °F 96% 30.13 in 9.0 mi SE 5.8 mph - N/A   Mostly Cloudy
5:54 AM 57.9 °F - 57.0 °F 97% 30.14 in 9.0 mi ESE 6.9 mph - N/A   Overcast
6:54 AM 57.9 °F - 55.9 °F 93% 30.14 in 10.0 mi ESE 10.4 mph - N/A   Overcast
7:54 AM 57.9 °F - 55.9 °F 93% 30.15 in 10.0 mi SSE 8.1 mph - N/A   Overcast
8:54 AM 60.1 °F - 55.9 °F 86% 30.15 in 10.0 mi SE 10.4 mph - N/A   Mostly Cloudy
9:54 AM 64.0 °F - 57.0 °F 78% 30.15 in 10.0 mi SE 5.8 mph - N/A   Clear
10:54 AM 70.0 °F - 57.9 °F 65% 30.14 in 10.0 mi SE 5.8 mph - N/A   Clear
11:54 AM 75.0 °F - 57.9 °F 55% 30.13 in 10.0 mi ESE 6.9 mph - N/A   Clear
12:54 PM 78.1 °F - 55.9 °F 46% 30.10 in 10.0 mi SSE 13.8 mph - N/A   Clear
1:54 PM 80.1 °F 80.2 °F 55.9 °F 43% 30.07 in 10.0 mi SSE 9.2 mph - N/A   Clear
2:54 PM 82.0 °F 81.4 °F 55.0 °F 39% 30.05 in 10.0 mi South 6.9 mph - N/A   Clear
3:54 PM 82.0 °F 81.4 °F 55.0 °F 39% 30.04 in 10.0 mi South 6.9 mph - N/A   Clear
4:54 PM 81.0 °F 80.7 °F 55.0 °F 41% 30.03 in 10.0 mi SSE 9.2 mph - N/A   Clear
5:54 PM 77.0 °F - 55.9 °F 48% 30.03 in 10.0 mi SE 11.5 mph - N/A   Clear
6:54 PM 72.0 °F - 57.0 °F 59% 30.06 in 10.0 mi SE 10.4 mph - N/A   Clear
7:54 PM 68.0 °F - 57.0 °F 68% 30.06 in 10.0 mi SE 9.2 mph - N/A   Clear
8:54 PM 66.0 °F - 55.9 °F 70% 30.07 in 10.0 mi SE 10.4 mph - N/A   Clear
9:54 PM 63.0 °F - 55.0 °F 75% 30.09 in 10.0 mi SE 9.2 mph - N/A   Clear
10:54 PM 62.1 °F - 54.0 °F 75% 30.09 in 10.0 mi SE 8.1 mph - N/A   Clear
11:54 PM 61.0 °F - 54.0 °F 78% 30.09 in 10.0 mi SE 8.1 mph - N/A   Clear